Weather in Bolshoye Podberezye

Russia / Republic of Tatarstan     55°21′23″N   47°58′43″E
temp.,
°C
wind,
m/s
gust,
m/s
humid.,
%
clouds,
%
prec.,
mm/h
press.,
hPa
HPBL,
m
11 april, sun
sun1100:00+1n46100100 0.3 1025146
03:00+1n3899100 0.5 1026171
06:00+2n4899100 0.5 1027206
09:00+2n37100100 0.9 1028207
12:00+2n48100100 1.1 1030210
15:00+2n3799100 2.1 1032149
18:00+2nne2599100 2.6 1033114
21:00+3ne3598100 3.4 103398
12 april, mon
mon1200:00+3ne4794100 0.9 1034140
03:00+2nne4994100 3.4 1035187
06:00+2nne3897100 3.4 1036190
09:00+3ene61296100 6.4 1036261
12:00+5ene4896100 0.4 1036267
15:00+7ene579587 0.4 1036269
18:00+6ene4796100 0.0 1035151
21:00+5ene379792 0.0 1035114
13 april, tue
tue1300:00+5e3395100 0.0 103433
03:00+6ese339282 0.0 103424
06:00+6se339138 0.0 103439
09:00+11sse477782 0.0 1033255
12:00+15sse575997 0.0 1032590
15:00+16sse574283 0.0 1031859
18:00+12sse485753 0.0 1030157
21:00+9s46655 0.0 103181
14 april, wed
wed1400:00+8s35705 0.0 103048
03:00+7s337471 0.0 103022
06:00+7s337593 0.0 102936
09:00+12s355998 0.0 1029254
12:00+16s454754 0.0 1027715
15:00+17s45385 0.0 1026977
18:00+14se36515 0.0 1025103
21:00+10sse33575 0.0 102533
15 april, thu
thu1500:00+8s22618 0.0 102416
03:00+7s22675 0.0 102312
06:00+7sse22685 0.0 102217
09:00+13s34515 0.0 1021276
12:00+16s34455 0.0 1019898
15:00+18s34425 0.0 10171377
18:00+15sse33555 0.0 101629
21:00+12ssw22700 0.0 101519